Time_in_sec,gx,gy,gz
1314272067.05646896,0.03693011,0.00262267,-0.99931441
1314272067.10462046,0.03705761,0.00265034,-0.99930962
1314272067.15345073,0.03711256,0.00267848,-0.99930750
1314272067.20209289,0.03686873,0.00254194,-0.99931688
1314272067.25260353,0.03738478,0.00231586,-0.99929826
1314272067.30181932,0.03746716,0.00250591,-0.99929472
1314272067.35246897,0.03752853,0.00227363,-0.99929297
1314272067.40161085,0.03740009,0.00228295,-0.99929776
1314272067.45365047,0.03763032,0.00230935,-0.99928906
1314272067.50562906,0.03780823,0.00223954,-0.99928250
1314272067.55750012,0.03806390,0.00125246,-0.99927452
1314272067.60447335,0.03813647,0.00150862,-0.99927140
1314272067.65257692,0.03783242,0.00149088,-0.99928299
1314272067.70167327,0.03796780,0.00141655,-0.99927796
1314272067.75362945,0.03819198,0.00196627,-0.99926849
1314272067.80163360,0.03833078,0.00203368,-0.99926304
1314272067.85649347,0.03827554,0.00200158,-0.99926522
1314272067.90161848,0.03817715,0.00197534,-0.99926903
1314272067.95360541,0.03813379,0.00189002,-0.99927086
1314272068.00447059,0.03941454,0.00159544,-0.99922167
1314272068.05258799,0.03943721,0.00157041,-0.99922082
1314272068.10167480,0.03968054,0.00137567,-0.99921147
1314272068.15246010,0.03967742,0.00133891,-0.99921164
1314272068.20160317,0.03954756,0.00114442,-0.99921703
1314272068.25169349,0.04048439,0.00021879,-0.99918015
1314272068.30156875,0.04034796,0.00030748,-0.99918564
1314272068.35331607,0.04032285,0.00016207,-0.99918669
1314272068.40063906,0.04040930,0.00026903,-0.99918317
1314272068.45361423,0.04043959,0.00024369,-0.99918196
1314272068.50160313,0.03988860,-0.00002613,-0.99920413
1314272068.55247831,0.04004537,-0.00021116,-0.99919784
1314272068.60149860,0.03992934,-0.00009217,-0.99920250
1314272068.65252924,0.03990768,-0.00004409,-0.99920337
1314272068.70152736,0.03981371,-0.00024634,-0.99920709
1314272068.75314379,0.04009872,-0.00013242,-0.99919571
1314272068.80185914,0.03996256,0.00021457,-0.99920115
1314272068.85365677,0.03994298,0.00032401,-0.99920191
1314272068.90199614,0.03995449,0.00019645,-0.99920148
1314272068.95249462,0.04006545,0.00003252,-0.99919706
1314272069.00056362,0.04075134,0.00019943,-0.99916930
1314272069.05362105,0.04077919,0.00017581,-0.99916817
1314272069.10449457,0.04072910,0.00056324,-0.99917007
1314272069.15351105,0.04102433,0.00040374,-0.99915807
1314272069.20447731,0.04103299,0.00040883,-0.99915771
1314272069.25248599,0.04034388,-0.00047213,-0.99918574
1314272069.30177855,0.04028987,-0.00062077,-0.99918784
1314272069.35249662,0.04036371,-0.00050942,-0.99918492
1314272069.40462589,0.04038294,-0.00043601,-0.99918418
1314272069.45566487,0.04020286,-0.00027591,-0.99919150
1314272069.50462580,0.03951489,0.00000932,-0.99921898
1314272069.55347013,0.03976701,0.00007335,-0.99920898
1314272069.60447884,0.03979192,0.00015928,-0.99920798
1314272069.65249896,0.03971902,-0.00000212,-0.99921089
1314272069.70156074,0.03967410,0.00004581,-0.99921267
1314272069.75260139,0.03963844,-0.00001692,-0.99921409
1314272069.80460048,0.03847085,-0.00005376,-0.99925972
1314272069.85247755,0.03817654,-0.00002956,-0.99927101
1314272069.90154481,0.03825701,-0.00021050,-0.99926791
1314272069.94160891,0.03835310,-0.00041797,-0.99926416
1314272070.00457811,0.03764785,-0.00140150,-0.99929009
1314272070.05269432,0.03759794,-0.00135937,-0.99929202
1314272070.10146141,0.03762596,-0.00140956,-0.99929090
1314272070.15247107,0.03747993,-0.00132462,-0.99929650
1314272070.20160079,0.03741832,-0.00142157,-0.99929868
1314272070.25366879,0.03805256,-0.00237543,-0.99927292
1314272070.30162477,0.03792285,-0.00241841,-0.99927774
1314272070.35248303,0.03757911,-0.00249425,-0.99929054
1314272070.40447998,0.03761124,-0.00273172,-0.99928871
1314272070.45249867,0.03751588,-0.00273024,-0.99929230
1314272070.50150871,0.03758658,-0.00304898,-0.99928872
1314272070.55314159,0.03876998,-0.00277666,-0.99924430
1314272070.60451317,0.03870510,-0.00262693,-0.99924722
1314272070.65564370,0.03854270,-0.00264416,-0.99925346
1314272070.70550013,0.03833092,-0.00261716,-0.99926167
1314272070.75251341,0.03881096,-0.00363973,-0.99923994
1314272070.80454659,0.03866400,-0.00332504,-0.99924674
1314272070.85251617,0.03859609,-0.00334914,-0.99924928
1314272070.90167904,0.03856602,-0.00353839,-0.99924979
1314272070.95302367,0.03872093,-0.00357115,-0.99924368
1314272071.00060081,0.03887900,-0.00334844,-0.99923832
1314272071.05251503,0.03940007,-0.00334506,-0.99921792
1314272071.10152602,0.03941062,-0.00312382,-0.99921822
1314272071.15253615,0.03949470,-0.00333333,-0.99921422
1314272071.20446777,0.03939554,-0.00323661,-0.99921845
1314272071.25343537,0.03956266,-0.00348741,-0.99921101
1314272071.30154157,0.03956129,-0.00353678,-0.99921089
1314272071.35245419,0.03960156,-0.00354853,-0.99920925
1314272071.40453768,0.03962398,-0.00349004,-0.99920857
1314272071.45054650,0.03966713,-0.00353137,-0.99920671
1314272071.50047565,0.03968189,-0.00390261,-0.99920474
1314272071.55250311,0.03960710,-0.00381060,-0.99920806
1314272071.60046768,0.03971612,-0.00399916,-0.99920300
1314272071.65314817,0.03967019,-0.00406006,-0.99920458
1314272071.70242143,0.03961609,-0.00419444,-0.99920617
1314272071.75339437,0.03972395,-0.00431629,-0.99920137
1314272071.80155063,0.03959348,-0.00486958,-0.99920400
1314272071.85029840,0.03959683,-0.00482225,-0.99920410
1314272071.90048528,0.03976172,-0.00480245,-0.99919765
1314272071.94162130,0.03959388,-0.00501759,-0.99920326
1314272072.00483084,0.03924460,-0.00585912,-0.99921246
1314272072.05251002,0.03940752,-0.00585490,-0.99920607
1314272072.10170293,0.03947827,-0.00583691,-0.99920338
1314272072.15249038,0.03926690,-0.00567047,-0.99921267
1314272072.20159674,0.03938715,-0.00565528,-0.99920802
1314272072.25383949,0.03880796,-0.00588030,-0.99922939
1314272072.30448174,0.03893014,-0.00586697,-0.99922471
1314272072.35253549,0.03899131,-0.00576368,-0.99922293
1314272072.40448403,0.03892180,-0.00557598,-0.99922670
1314272072.45249605,0.03865216,-0.00548081,-0.99923769
1314272072.50212741,0.03873827,-0.00539869,-0.99923481
1314272072.55248904,0.03830758,-0.00475908,-0.99925466
1314272072.60152149,0.03845378,-0.00471178,-0.99924927
1314272072.65250325,0.03839776,-0.00448998,-0.99925245
1314272072.70150208,0.03832445,-0.00452760,-0.99925509
1314272072.75254130,0.03843340,-0.00448924,-0.99925108
1314272072.80452275,0.03818101,-0.00437385,-0.99926127
1314272072.85249877,0.03820809,-0.00416436,-0.99926113
1314272072.90178752,0.03808358,-0.00418810,-0.99926578
1314272072.95247746,0.03791176,-0.00414643,-0.99927249
1314272073.00187087,0.03781362,-0.00461843,-0.99927414
1314272073.05473661,0.03801594,-0.00481454,-0.99926553
1314272073.10459161,0.03817425,-0.00473647,-0.99925987
1314272073.15248561,0.03793838,-0.00477490,-0.99926867
1314272073.20546961,0.03796649,-0.00475134,-0.99926772
1314272073.25259995,0.03795570,-0.00508685,-0.99926648
1314272073.30173397,0.03806113,-0.00496345,-0.99926309
1314272073.35248542,0.03809066,-0.00504418,-0.99926156
1314272073.40146565,0.03823203,-0.00509679,-0.99925589
1314272073.45649910,0.03825712,-0.00498152,-0.99925551
1314272073.50450110,0.03888795,-0.00489318,-0.99923160
1314272073.55748224,0.03890370,-0.00490049,-0.99923095
1314272073.60230923,0.03889330,-0.00464638,-0.99923257
1314272073.65251827,0.03878926,-0.00446627,-0.99923743
1314272073.70171213,0.03858390,-0.00431580,-0.99924604
1314272073.75318098,0.03861034,-0.00419351,-0.99924554
1314272073.80477285,0.03846932,-0.00370562,-0.99925291
1314272073.85372353,0.03849050,-0.00371741,-0.99925205
1314272073.90161276,0.03870367,-0.00370097,-0.99924388
1314272073.94061565,0.03892983,-0.00372279,-0.99923501
1314272074.00502443,0.03915352,-0.00323390,-0.99922797
1314272074.05259061,0.03926731,-0.00312859,-0.99922384
1314272074.10158730,0.03937113,-0.00299046,-0.99922018
1314272074.15261173,0.03940009,-0.00282452,-0.99921952
1314272074.20163846,0.03930353,-0.00285113,-0.99922325
1314272074.25569820,0.03931843,-0.00257321,-0.99922342
1314272074.30159807,0.03940505,-0.00253373,-0.99922011
1314272074.35251403,0.03941701,-0.00230942,-0.99922018
1314272074.40047646,0.03947153,-0.00240700,-0.99921780
1314272074.45248556,0.03948658,-0.00231719,-0.99921741
1314272074.50145340,0.03963020,-0.00196160,-0.99921249
1314272074.55304432,0.03944659,-0.00198928,-0.99921970
1314272074.60058665,0.03949116,-0.00204445,-0.99921783
1314272074.65148354,0.03968150,-0.00217951,-0.99921000
1314272074.70156813,0.03951809,-0.00197486,-0.99921690
1314272074.75250196,0.03969094,-0.00203048,-0.99920994
1314272074.80447721,0.03882846,-0.00128401,-0.99924507
1314272074.85328507,0.03896499,-0.00106082,-0.99924001
1314272074.90229344,0.03908116,-0.00077184,-0.99923574
1314272074.95334697,0.03907556,-0.00070403,-0.99923601
1314272075.00561500,0.03872545,-0.00048257,-0.99924977
1314272075.05369949,0.03875685,-0.00051785,-0.99924854
1314272075.10161448,0.03890218,-0.00039017,-0.99924295
1314272075.15345812,0.03870294,-0.00021485,-0.99925074
1314272075.20466185,0.03873652,-0.00030476,-0.99924941
1314272075.25259376,0.03830304,-0.00040043,-0.99926609
1314272075.30197334,0.03845385,-0.00033374,-0.99926032
1314272075.35249186,0.03827902,-0.00034195,-0.99926703
1314272075.40621233,0.03834812,-0.00048479,-0.99926432
1314272075.45258546,0.03859354,-0.00056699,-0.99925483
1314272075.50160193,0.03863284,-0.00106295,-0.99925291
1314272075.55250692,0.03875859,-0.00110639,-0.99924799
1314272075.60448670,0.03851997,-0.00113460,-0.99925719
1314272075.65249920,0.03848656,-0.00095248,-0.99925866
1314272075.70168233,0.03834286,-0.00124635,-0.99926386
1314272075.75257921,0.03847286,-0.00126867,-0.99925884
1314272075.80159664,0.03771594,-0.00114888,-0.99928784
1314272075.85439301,0.03769784,-0.00119358,-0.99928847
1314272075.90160251,0.03770241,-0.00121064,-0.99928828
1314272075.94162607,0.03780642,-0.00119590,-0.99928437
1314272076.00446796,0.03771408,-0.00118381,-0.99928787
1314272076.05256128,0.03732324,-0.00173318,-0.99930174
1314272076.10187531,0.03743016,-0.00183196,-0.99929757
1314272076.15368342,0.03756656,-0.00168544,-0.99929271
1314272076.20160341,0.03758385,-0.00170801,-0.99929202
1314272076.25356913,0.03801457,-0.00156738,-0.99927596
1314272076.30550218,0.03813486,-0.00140664,-0.99927161
1314272076.35250640,0.03823820,-0.00154434,-0.99926746
1314272076.40446997,0.03815398,-0.00133333,-0.99927098
1314272076.45258784,0.03810732,-0.00147589,-0.99927256
1314272076.50175428,0.03722753,-0.00136462,-0.99930588
1314272076.55259800,0.03763154,-0.00141941,-0.99929067
1314272076.60458469,0.03760988,-0.00160329,-0.99929121
1314272076.65376234,0.03750723,-0.00135497,-0.99929544
1314272076.70458460,0.03739830,-0.00127753,-0.99929962
1314272076.75647759,0.03817400,-0.00142263,-0.99927009
1314272076.80448365,0.03813768,-0.00166880,-0.99927110
1314272076.85250163,0.03823384,-0.00198238,-0.99926685
1314272076.90173173,0.03823901,-0.00214138,-0.99926633
1314272076.95249891,0.03834768,-0.00222869,-0.99926197
1314272077.00060558,0.03804601,-0.00255682,-0.99927272
1314272077.05503845,0.03792034,-0.00231825,-0.99927808
1314272077.10461473,0.03797524,-0.00244837,-0.99927568
1314272077.15405273,0.03800712,-0.00261716,-0.99927404
1314272077.20444202,0.03796389,-0.00271906,-0.99927541
1314272077.25301099,0.03858008,-0.00163962,-0.99925417
1314272077.30146050,0.03856274,-0.00175979,-0.99925463
1314272077.35248637,0.03852595,-0.00152373,-0.99925644
1314272077.40049458,0.03883768,-0.00147748,-0.99924444
1314272077.45169497,0.03898807,-0.00164509,-0.99923832
1314272077.50160551,0.03874028,-0.00180526,-0.99924768
1314272077.55246615,0.03867760,-0.00184159,-0.99925004
1314272077.60057926,0.03852377,-0.00194871,-0.99925578
1314272077.65249825,0.03882778,-0.00189659,-0.99924412
1314272077.70215559,0.03893177,-0.00211808,-0.99923963
1314272077.75321770,0.03927160,-0.00201215,-0.99922655
1314272077.80641627,0.03891645,-0.00199924,-0.99924047
1314272077.85034132,0.03900230,-0.00207607,-0.99923696
1314272077.90050030,0.03894441,-0.00204553,-0.99923929
1314272077.94204617,0.03901969,-0.00223718,-0.99923594
1314272078.00445628,0.03914479,-0.00245304,-0.99923054
1314272078.05250669,0.03831229,-0.00226263,-0.99926325
1314272078.10176992,0.03823543,-0.00215873,-0.99926643
1314272078.15247726,0.03825112,-0.00200828,-0.99926614
1314272078.20560360,0.03813711,-0.00219951,-0.99927010
1314272078.25535679,0.03777975,-0.00234177,-0.99928335
1314272078.30561447,0.03764874,-0.00136754,-0.99929010
1314272078.35348296,0.03768267,-0.00107808,-0.99928917
1314272078.40550184,0.03759650,-0.00091003,-0.99929259
1314272078.45246077,0.03756194,-0.00078941,-0.99929399
1314272078.50217724,0.03620223,-0.00117255,-0.99934380
1314272078.55246568,0.03607872,-0.00119111,-0.99934824
1314272078.60207772,0.03604660,-0.00124599,-0.99934933
1314272078.65242648,0.03597945,-0.00134114,-0.99935163
1314272078.70550060,0.03590672,-0.00120950,-0.99935441
1314272078.75346470,0.03612597,-0.00109923,-0.99934664
1314272078.80447340,0.03550062,-0.00194017,-0.99936777
1314272078.85265541,0.03535916,-0.00178496,-0.99937308
1314272078.90176916,0.03518740,-0.00189057,-0.99937894
1314272078.95248437,0.03504124,-0.00179682,-0.99938425
1314272079.00546527,0.03438743,-0.00249015,-0.99940548
1314272079.05653238,0.03438984,-0.00243841,-0.99940552
1314272079.10459399,0.03459647,-0.00242135,-0.99939843
1314272079.15245771,0.03458687,-0.00225999,-0.99939914
1314272079.20447230,0.03458390,-0.00214895,-0.99939949
1314272079.25250769,0.03482967,-0.00199525,-0.99939127
1314272079.30189729,0.03464951,-0.00175628,-0.99939798
1314272079.35322356,0.03453938,-0.00162583,-0.99940202
1314272079.40561295,0.03469643,-0.00153917,-0.99939671
1314272079.45162463,0.03459552,-0.00164841,-0.99940004
1314272079.50561476,0.03493553,-0.00152308,-0.99938841
1314272079.55248499,0.03540304,-0.00120902,-0.99937238
1314272079.60550046,0.03518091,-0.00126565,-0.99938016
1314272079.65269494,0.03522355,-0.00131656,-0.99937859
1314272079.70174289,0.03549172,-0.00123526,-0.99936921
1314272079.75293088,0.03555280,-0.00188526,-0.99936602
1314272079.80448246,0.03550268,-0.00178939,-0.99936798
1314272079.85366511,0.03564028,-0.00187133,-0.99936293
1314272079.90074420,0.03552279,-0.00200669,-0.99936685
1314272079.94551754,0.03553462,-0.00195282,-0.99936654
1314272080.00444555,0.03505192,-0.00075413,-0.99938521
1314272080.05249047,0.03494261,-0.00069558,-0.99938908
1314272080.10163784,0.03497663,-0.00059495,-0.99938795
1314272080.15335703,0.03507386,-0.00073866,-0.99938445
1314272080.20112562,0.03498285,-0.00052044,-0.99938778
1314272080.25649476,0.03530555,0.00051963,-0.99937643
1314272080.30060840,0.03542258,0.00044213,-0.99937233
1314272080.35347390,0.03537280,0.00051424,-0.99937405
1314272080.40048218,0.03540083,0.00070183,-0.99937295
1314272080.45258665,0.03522587,0.00078010,-0.99937907
1314272080.50157356,0.03535127,0.00081107,-0.99937462
1314272080.55250525,0.03500206,0.00100902,-0.99938673
1314272080.60163713,0.03481352,0.00085766,-0.99939346
1314272080.65246701,0.03479938,0.00098457,-0.99939383
1314272080.70148802,0.03480647,0.00082143,-0.99939373
1314272080.75348067,0.03492732,0.00074669,-0.99938958
1314272080.80546904,0.03293638,0.00008459,-0.99945745
1314272080.85251570,0.03258622,0.00027894,-0.99946889
1314272080.90147495,0.03265898,0.00024618,-0.99946652
1314272080.95341134,0.03285498,0.00021000,-0.99946011
1314272081.00163651,0.03268449,0.00045237,-0.99946562
1314272081.05434036,0.02958067,0.00038558,-0.99956232
1314272081.10448098,0.02966869,0.00034834,-0.99955973
1314272081.15749645,0.02973032,0.00048294,-0.99955784
1314272081.19650722,0.02991475,0.00046267,-0.99955235
1314272081.25275254,0.02995624,0.00051296,-0.99955108
1314272081.30186796,0.02682573,0.00076578,-0.99963983
1314272081.35356665,0.02678726,0.00073527,-0.99964089
1314272081.40458894,0.02668132,0.00090805,-0.99964358
1314272081.45376062,0.02681242,0.00082727,-0.99964014
1314272081.50450087,0.02656172,0.00099317,-0.99964668
1314272081.55347490,0.02463281,0.00143644,-0.99969553
1314272081.60550022,0.02473081,0.00150578,-0.99969301
1314272081.65331197,0.02453078,0.00150221,-0.99969795
1314272081.69362473,0.02450272,0.00110511,-0.99969915
1314272081.75247192,0.02427403,0.00119707,-0.99970463
1314272081.80456400,0.02336270,0.00196509,-0.99972512
1314272081.85514927,0.02337484,0.00203130,-0.99972471
1314272081.90161157,0.02341250,0.00209732,-0.99972369
1314272081.94153118,0.02316654,0.00214494,-0.99972932
1314272082.00444341,0.02233503,0.00242939,-0.99974759
1314272082.05335951,0.02184788,0.00305813,-0.99975663
1314272082.10192609,0.02177300,0.00290322,-0.99975872
1314272082.15246773,0.02211974,0.00261454,-0.99975191
1314272082.19360304,0.02203189,0.00299655,-0.99975278
1314272082.25634193,0.02222688,0.00295147,-0.99974860
1314272082.30552006,0.02053943,0.00462956,-0.99977832
1314272082.35348821,0.02070789,0.00468026,-0.99977461
1314272082.40180564,0.02081532,0.00466450,-0.99977246
1314272082.45250845,0.02066000,0.00452843,-0.99977630
1314272082.50179195,0.02006514,0.00507294,-0.99978580
1314272082.55289865,0.01931133,0.00520700,-0.99979996
1314272082.60446358,0.01937554,0.00536513,-0.99979788
1314272082.65366268,0.01953093,0.00526711,-0.99979538
1314272082.69284582,0.01945285,0.00541407,-0.99979612
1314272082.75348520,0.01954422,0.00558944,-0.99979337
1314272082.80473566,0.01795903,0.00659485,-0.99981697
1314272082.85261750,0.01823224,0.00659652,-0.99981202
1314272082.90164971,0.01823930,0.00643408,-0.99981295
1314272082.94111419,0.01825120,0.00656964,-0.99981185
1314272083.00160670,0.01833237,0.00644401,-0.99981118
1314272083.05650115,0.01749744,0.00754347,-0.99981845
1314272083.10160160,0.01739048,0.00758934,-0.99981997
1314272083.15255737,0.01733432,0.00739540,-0.99982240
1314272083.20050836,0.01747169,0.00734909,-0.99982035
1314272083.25260806,0.01683326,0.00766689,-0.99982892
1314272083.30150843,0.01634119,0.00842711,-0.99983096
1314272083.35358667,0.01619867,0.00853661,-0.99983235
1314272083.40061045,0.01615290,0.00840547,-0.99983420
1314272083.45352793,0.01620318,0.00843408,-0.99983315
1314272083.50048995,0.01543295,0.00866940,-0.99984332
1314272083.55245662,0.01542752,0.00882870,-0.99984201
1314272083.60049605,0.01526914,0.00909440,-0.99984206
1314272083.65244603,0.01535734,0.00926664,-0.99983913
1314272083.69041014,0.01542552,0.00928999,-0.99983786
1314272083.75303578,0.01550433,0.00942675,-0.99983536
1314272083.80147076,0.01500691,0.00919696,-0.99984509
1314272083.85040998,0.01515771,0.00926049,-0.99984223
1314272083.90046310,0.01528534,0.00939307,-0.99983905
1314272083.94145846,0.01512112,0.00950664,-0.99984048
1314272084.00447440,0.01434459,0.00954047,-0.99985160
1314272084.05251479,0.01497208,0.00909974,-0.99984650
1314272084.10180116,0.01494928,0.00902804,-0.99984750
1314272084.15249729,0.01485789,0.00892884,-0.99984975
1314272084.19359374,0.01482295,0.00894955,-0.99985008
1314272084.25213337,0.01489525,0.00900032,-0.99984855
1314272084.30561209,0.01531145,0.00967984,-0.99983592
1314272084.35248613,0.01546072,0.00961567,-0.99983424
1314272084.40446854,0.01536708,0.00951755,-0.99983662
1314272084.45281267,0.01530433,0.00969172,-0.99983591
1314272084.50446105,0.01440893,0.01002513,-0.99984593
1314272084.55248642,0.01538292,0.00972600,-0.99983437
1314272084.60160494,0.01525174,0.00956012,-0.99983798
1314272084.65374827,0.01521566,0.00944428,-0.99983963
1314272084.69267225,0.01528428,0.00965176,-0.99983660
1314272084.75268221,0.01544333,0.00966523,-0.99983403
1314272084.80446005,0.01473905,0.00858684,-0.99985450
1314272084.85266018,0.01478762,0.00858391,-0.99985381
1314272084.90443707,0.01467385,0.00858732,-0.99985546
